September 28, 2022

Time Code Weather Temp. Visibility Ceiling Wind METAR/SPECI
13:25
V
14 °C 10 km+ - 280° 280° 6 kt METAR EHLE 281125Z AUTO 28006KT 240V320 9999 NSC 14/07 Q0996 NOSIG
12:55
V
14 °C 10 km+ - 270° 270° 5 kt METAR EHLE 281055Z AUTO 27005KT 240V330 9999 NSC 14/08 Q0996 NOSIG
12:25
V
14 °C 10 km+ - 290° 290° 6 kt METAR EHLE 281025Z AUTO 29006KT 240V340 9999 FEW022/// 14/09 Q0996 NOSIG
11:55
V
13 °C 10 km+ - 270° 270° 5 kt METAR EHLE 280955Z AUTO 27005KT 230V300 9999 NCD 13/09 Q0996 NOSIG
11:25
V
13 °C 10 km+ - 250° 250° 6 kt METAR EHLE 280925Z AUTO 25006KT 230V290 9999 SCT017 13/10 Q0996 NOSIG
10:55
V
12 °C 10 km+ - 260° 260° 4 kt METAR EHLE 280855Z AUTO 26004KT 210V310 9999 FEW010 12/10 Q0996 NOSIG
10:25
V
11 °C 10 km+ - 230° 230° 6 kt METAR EHLE 280825Z AUTO 23006KT 9999 NCD 11/10 Q0996 NOSIG
09:55
V
9 °C 10 km+ - 220° 220° 4 kt METAR EHLE 280755Z AUTO 22004KT 9999 NCD 09/09 Q0995 NOSIG
09:25
V
8 °C 10 km+ - 230° 230° 3 kt METAR EHLE 280725Z AUTO 23003KT 190V250 9999 NCD 08/08 Q0995 NOSIG
08:55
V
6 °C 9 km - 240° 240° 3 kt METAR EHLE 280655Z AUTO 24003KT 9000 NCD 06/06 Q0995 NOSIG
08:25
I
4 °C 1.6 km - 240° 240° 3 kt METAR EHLE 280625Z AUTO 24003KT 1600 R23/0600N FG NCD 04/04 Q0995 BECMG 9999 NSW
07:55
L
4 °C 300 m - 250° 250° 3 kt METAR EHLE 280555Z AUTO 25003KT 0300 R23/0650U FG FEW000 04/04 Q0995 NOSIG
07:25
L
5 °C 500 m - 240° 240° 2 kt METAR EHLE 280525Z AUTO 24002KT 0500 R23/0400D FG NSC 05/05 Q0995 NOSIG
06:55
L
4 °C 600 m - Var Var 1 kt METAR EHLE 280455Z AUTO VRB01KT 0600 FG SCT000 04/04 Q0995
06:25
L
4 °C 800 m 1,900 ft 240° 240° 5 kt METAR EHLE 280425Z AUTO 24005KT 0800 FG SCT015 BKN019 04/04 Q0994
05:55
L
4 °C 600 m - Var Var 2 kt METAR EHLE 280355Z AUTO VRB02KT 0600 FG BKN000 04/04 Q0995
05:25
L
5 °C 600 m - 240° 240° 3 kt METAR EHLE 280325Z AUTO 24003KT 0600 FG NSC 05/05 Q0994
04:55
M
5 °C 6 km - 230° 230° 4 kt METAR EHLE 280255Z AUTO 23004KT 6000 BR NSC 05/05 Q0994
04:25
V
4 °C 9 km - 240° 240° 5 kt METAR EHLE 280225Z AUTO 24005KT 9000 BR NSC 04/04 Q0994
03:55
V
5 °C 9 km - 220° 220° 3 kt METAR EHLE 280155Z AUTO 22003KT 9000 NSC 05/05 Q0994
03:25
M
6 °C 6 km 4,400 ft 240° 240° 3 kt METAR EHLE 280125Z AUTO 24003KT 6000 BR BKN044 06/06 Q0994
02:55
I
5 °C 2.1 km 4,700 ft 220° 220° 2 kt METAR EHLE 280055Z AUTO 22002KT 2100 BR OVC047 05/05 Q0994
02:25
L
5 °C 550 m 4,500 ft 240° 240° 2 kt METAR EHLE 280025Z AUTO 24002KT 0550 FG OVC045 05/05 Q0995
01:55
L
5 °C 400 m - 230° 230° 3 kt METAR EHLE 272355Z AUTO 23003KT 0400 FG NSC 05/05 Q0995
01:25
L
6 °C 400 m - Var Var 1 kt METAR EHLE 272325Z AUTO VRB01KT 0400 FG NSC 06/06 Q0995
00:55
L
7 °C 500 m - 220° 220° 3 kt METAR EHLE 272255Z AUTO 22003KT 0500 FG NSC 07/07 Q0995
00:25
I
7 °C 2.8 km - 230° 230° 3 kt METAR EHLE 272225Z AUTO 23003KT 2800 BR NSC 07/07 Q0995

September 27, 2022

Time Code Weather Temp. Visibility Ceiling Wind METAR/SPECI
23:55
M
7 °C 6 km - 220° 220° 6 kt METAR EHLE 272155Z AUTO 22006KT 6000 BR NSC 07/07 Q0995
23:25
V
8 °C 10 km+ - 220° 220° 6 kt METAR EHLE 272125Z AUTO 22006KT 9999 SCT042 08/07 Q0995
22:55
V
8 °C 10 km+ 4,300 ft 210° 210° 6 kt METAR EHLE 272055Z AUTO 21006KT 9999 OVC043 08/08 Q0995
22:25
V
8 °C 10 km+ 4,800 ft 220° 220° 6 kt METAR EHLE 272025Z AUTO 22006KT 9999 FEW015CB BKN048 08/08 Q0995
21:55
V
9 °C 10 km+ - 220° 220° 6 kt METAR EHLE 271955Z AUTO 22006KT 9999 SCT039 SCT047 09/08 Q0996 REDZ NOSIG
21:25
V
9 °C 10 km+ 4,200 ft 220° 220° 7 kt METAR EHLE 271925Z AUTO 22007KT 9999 -UP SCT037 OVC042 09/07 Q0996 TEMPO -SHRA FEW025CB
20:55
V
8 °C 10 km+ - 200° 200° 6 kt METAR EHLE 271855Z AUTO 20006KT 9999 NSC 08/07 Q0996 TEMPO -SHRA
20:25
V
9 °C 10 km+ - 170° 170° 6 kt METAR EHLE 271825Z AUTO 17006KT 9999 FEW015CB 09/08 Q0995 TEMPO -SHRA
19:55
V
9 °C 10 km+ 4,200 ft 180° 180° 4 kt METAR EHLE 271755Z AUTO 18004KT 140V220 9999 -RA SCT015CB SCT038 BKN042 OVC048 09/09 Q0996 RERA TEMPO 7000 -SHRA SCT025CB
19:25
M
9 °C 10 km+ 1,500 ft 290° 290° 4 kt METAR EHLE 271725Z AUTO 29004KT 210V320 9999 SHRA SCT011 BKN015CB BKN019 09/08 Q0996 TEMPO 7000 -SHRA SCT025CB
18:55
V
9 °C 10 km+ 3,400 ft Var Var 2 kt METAR EHLE 271655Z AUTO VRB02KT 9999 OVC034 09/08 Q0996 TEMPO 7000 -SHRA SCT025CB
18:25
V
9 °C 10 km+ - 180° 180° 4 kt METAR EHLE 271625Z AUTO 18004KT 9999 FEW046 09/08 Q0996 TEMPO 7000 -SHRA SCT025CB
17:55
V
10 °C 10 km+ - 160° 160° 3 kt METAR EHLE 271555Z AUTO 16003KT 110V210 9999 NSC 10/08 Q0996 TEMPO -SHRA
17:25
V
10 °C 10 km+ - 220° 220° 4 kt METAR EHLE 271525Z AUTO 22004KT 180V240 9999 FEW015CB 10/08 Q0997 TEMPO 7000 -SHRA
16:55
V
10 °C 10 km+ - 250° 250° 4 kt METAR EHLE 271455Z AUTO 25004KT 220V290 9999 FEW015CB 10/08 Q0997 TEMPO 7000 -SHRA
16:25
V
9 °C 10 km+ 4,000 ft 260° 260° 9 kt METAR EHLE 271425Z AUTO 26009KT 230V290 9999 -RA FEW015CB BKN040 OVC046 09/08 Q0997 RERA TEMPO 7000 -SHRA
15:55
V
10 °C 10 km+ - 240° 240° 13 kt METAR EHLE 271355Z AUTO 24013KT 210V270 9999 -RADZ FEW014 FEW015CB SCT042 10/08 Q0997 TEMPO 7000 -SHRA
15:25
V
10 °C 10 km+ - 220° 220° 12 kt METAR EHLE 271325Z AUTO 22012KT 9999 FEW015CB 10/08 Q0997 TEMPO 7000 -SHRA
14:55
V
10 °C 10 km+ - 230° 230° 12 kt METAR EHLE 271255Z AUTO 23012KT 9999 FEW008 10/09 Q0997 TEMPO 7000 -SHRA
14:25
V
10 °C 10 km+ - 220° 220° 10 kt METAR EHLE 271225Z AUTO 22010KT 190V250 9999 -RA FEW031 SCT044 10/09 Q0997 TEMPO 7000 -SHRA
13:55
V
11 °C 10 km+ - 220° 220° 10 kt METAR EHLE 271155Z AUTO 22010KT 9999 NSC 11/09 Q0997 TEMPO 7000 -SHRA
13:25
V
10 °C 10 km+ 3,700 ft 230° 230° 10 kt METAR EHLE 271125Z AUTO 23010KT 190V250 9999 SHRA FEW015CB SCT024 BKN037 10/09 Q0997 REDZ TEMPO 7000 -SHRA
12:55
V
10 °C 10 km+ - 240° 240° 7 kt METAR EHLE 271055Z AUTO 24007KT 9999 -DZ FEW015CB SCT042 10/09 Q0997 REDZ TEMPO 7000 -SHRA
12:25
V
10 °C 10 km+ 4,400 ft 250° 250° 11 kt METAR EHLE 271025Z AUTO 25011KT 9999 SHRA SCT015CB OVC044 10/09 Q0997 TEMPO 7000 -SHRA
11:55
V
10 °C 10 km+ 3,600 ft 250° 250° 10 kt METAR EHLE 270955Z AUTO 25010KT 9999 -RADZ FEW015CB BKN036 10/09 Q0997 TEMPO 7000 -SHRA
11:25
V
11 °C 10 km+ 3,600 ft 250° 250° 9 kt METAR EHLE 270925Z AUTO 25009KT 210V270 9999 DZRA FEW017 SCT029 BKN036 11/09 Q0997 TEMPO 7000 -SHRA
10:55
V
11 °C 10 km+ 4,500 ft 240° 240° 10 kt METAR EHLE 270855Z AUTO 24010KT 220V280 9999 FEW013 BKN045 OVC049 11/09 Q0997 TEMPO 7000 -SHRA
10:25
V
11 °C 10 km+ - 270° 270° 8 kt METAR EHLE 270825Z AUTO 27008KT 230V300 9999 FEW015CB 11/09 Q0997 RERA TEMPO 7000 -SHRA
09:55
V
10 °C 10 km+ 4,500 ft 280° 280° 12 kt METAR EHLE 270755Z AUTO 28012KT 250V320 9999 -SHRA FEW015CB SCT027 BKN045 10/08 Q0997 TEMPO 7000 -SHRA
09:25
V
10 °C 10 km+ - 270° 270° 6 kt METAR EHLE 270725Z AUTO 27006KT 9999 FEW039 SCT047 10/08 Q0996 TEMPO 7000 -SHRA
08:55
V
10 °C 10 km+ - 300° 300° 8 kt METAR EHLE 270655Z AUTO 30008KT 9999 -RA FEW015CB 10/08 Q0996 RERA REDZ TEMPO 7000 -SHRA
08:25
V
10 °C 10 km+ - 300° 300° 10 kt METAR EHLE 270625Z AUTO 30010KT 270V340 9999 -RA FEW015CB 10/08 Q0996 TEMPO 7000 -SHRA
07:55
V
9 °C 10 km+ 3,200 ft 260° 260° 8 kt METAR EHLE 270555Z AUTO 26008KT 240V310 9999 FEW015CB SCT028 BKN032 BKN041 09/08 Q0996 TEMPO 7000 -SHRA
07:25
V
8 °C 10 km+ - 260° 260° 7 kt METAR EHLE 270525Z AUTO 26007KT 9999 NSC 08/07 Q0996 TEMPO 7000 -SHRA
06:55
V
9 °C 10 km+ - 290° 290° 6 kt METAR EHLE 270455Z AUTO 29006KT 260V320 9999 FEW015CB 09/07 Q0995 TEMPO 7000 -SHRA
06:25
V
9 °C 10 km+ - 300° 300° 8 kt METAR EHLE 270425Z AUTO 30008KT 280V340 9999 FEW015CB 09/07 Q0995 REDZ
05:55
V
9 °C 10 km+ 3,200 ft 260° 260° 6 kt METAR EHLE 270355Z AUTO 26006KT 9999 FEW026 BKN032 BKN039 09/08 Q0995
05:25
V
8 °C 10 km+ - 260° 260° 7 kt METAR EHLE 270325Z AUTO 26007KT 9999 NSC 08/07 Q0995
04:55
V
9 °C 10 km+ - 260° 260° 6 kt METAR EHLE 270255Z AUTO 26006KT 9999 NSC 09/08 Q0995
04:25
V
9 °C 10 km+ - 270° 270° 6 kt METAR EHLE 270225Z AUTO 27006KT 9999 NSC 09/08 Q0995
03:55
V
10 °C 10 km+ - 300° 300° 5 kt METAR EHLE 270155Z AUTO 30005KT 260V330 9999 NSC 10/08 Q0996
03:25
V
10 °C 10 km+ - 320° 320° 10 kt METAR EHLE 270125Z AUTO 32010KT 9999 NSC 10/08 Q0995
02:55
V
11 °C 10 km+ - 300° 300° 8 kt METAR EHLE 270055Z AUTO 30008KT 9999 FEW015CB 11/09 Q0995
02:25
V
10 °C 10 km+ - 290° 290° 6 kt METAR EHLE 270025Z AUTO 29006KT 9999 FEW015CB 10/09 Q0995
01:55
V
10 °C 10 km+ 3,400 ft 300° 300° 8 kt METAR EHLE 262355Z AUTO 30008KT 270V330 9999 FEW020 SCT028 BKN034 10/09 Q0995 REDZ
01:25
V
11 °C 10 km+ - 320° 320° 12 kt METAR EHLE 262325Z AUTO 32012KT 280V340 9999 FEW048 11/09 Q0995 REDZ
00:55
V
11 °C 10 km+ - 300° 300° 8 kt METAR EHLE 262255Z AUTO 30008KT 260V330 9999 NSC 11/09 Q0995
00:25
V
11 °C 10 km+ - 290° 290° 8 kt METAR EHLE 262225Z AUTO 29008KT 260V330 9999 NSC 11/09 Q0995 REDZ

September 26, 2022

Time Code Weather Temp. Visibility Ceiling Wind METAR/SPECI
23:55
V
11 °C 10 km+ 4,000 ft 290° 290° 7 kt METAR EHLE 262155Z AUTO 29007KT 270V330 9999 -DZ SCT035 OVC040 11/09 Q0995 REDZ
23:25
V
11 °C 10 km+ 3,100 ft 290° 290° 7 kt METAR EHLE 262125Z AUTO 29007KT 250V330 9999 -RA SCT016 SCT020 BKN031 11/10 Q0995
22:55
V
11 °C 10 km+ - 300° 300° 7 kt METAR EHLE 262055Z AUTO 30007KT 9999 DZ FEW015CB 11/09 Q0995
22:25
V
11 °C 10 km+ - 300° 300° 10 kt METAR EHLE 262025Z AUTO 30010KT 270V340 9999 -RA FEW015CB SCT049 11/10 Q0995
21:55
V
11 °C 10 km+ 4,700 ft 320° 320° 12 kt METAR EHLE 261955Z AUTO 32012KT 9999 -RA FEW015CB BKN047 11/10 Q0995 RERA REDZ
21:25
V
12 °C 10 km+ - 300° 300° 6 kt METAR EHLE 261925Z AUTO 30006KT 9999 DZ NSC 12/10 Q0995 TEMPO 6000 SHRA
20:55
V
12 °C 10 km+ - 310° 310° 7 kt METAR EHLE 261855Z AUTO 31007KT 280V340 9999 DZ FEW015CB 12/11 Q0995 TEMPO 6000 SHRA
20:25
V
12 °C 10 km+ - 290° 290° 6 kt METAR EHLE 261825Z AUTO 29006KT 250V330 9999 FEW015CB SCT047 12/11 Q0995 TEMPO 7000 -SHRA
19:55
V
11 °C 10 km+ 4,200 ft 240° 240° 4 kt METAR EHLE 261755Z AUTO 24004KT 9999 FEW015CB BKN042 11/10 Q0995 TEMPO 7000 -SHRA FEW025TCU
19:25
M
11 °C 10 km+ 1,900 ft 250° 250° 3 kt METAR EHLE 261725Z AUTO 25003KT 230V300 9999 -RA SCT016 BKN019 BKN037 11/11 Q0995 TEMPO 7000 -SHRA SCT020TCU
18:55
V
12 °C 10 km+ 4,600 ft 230° 230° 2 kt METAR EHLE 261655Z AUTO 23002KT 9999 -DZ FEW015CB SCT041 BKN046 12/11 Q0995 REDZ TEMPO 7000 -SHRA SCT020TCU
18:25
M
12 °C 7 km 2,700 ft 260° 260° 7 kt METAR EHLE 261625Z AUTO 26007KT 200V310 7000 SHRA FEW008 SCT014 FEW015CB BKN027 12/11 Q0995 BECMG 27010KT TEMPO 7000 -SHRA SCT020TCU
17:55
V
13 °C 10 km+ - 220° 220° 7 kt METAR EHLE 261555Z AUTO 22007KT 9999 -DZ FEW015CB SCT049 13/12 Q0994 REDZ BECMG 27010KT TEMPO 7000 -SHRA SCT020TCU
17:25
V
13 °C 10 km+ 4,200 ft 230° 230° 8 kt METAR EHLE 261525Z AUTO 23008KT 200V260 9999 FEW015 SCT018 OVC042 13/12 Q0995 TEMPO 6000 RA -SHRA BKN012 SCT020TCU
16:55
I
14 °C 10 km+ 900 ft 220° 220° 9 kt METAR EHLE 261455Z AUTO 22009KT 180V240 9999 FEW005 SCT007 BKN009 FEW015CB 14/13 Q0995 BECMG SCT025 TEMPO 7000 -SHRA FEW020TCU
16:25
I
13 °C 10 km+ 800 ft 210° 210° 7 kt METAR EHLE 261425Z AUTO 21007KT 180V250 9999 -SHRA FEW005 SCT006 BKN008 FEW015CB 13/12 Q0995 BECMG SCT007 BKN015 TEMPO 4000 RADZ
15:55
M
13 °C 10 km+ 1,400 ft 220° 220° 9 kt METAR EHLE 261355Z AUTO 22009KT 9999 DZRA FEW006 SCT007 BKN014 FEW015CB 13/12 Q0996 TEMPO 4000 BKN007
15:25
I
13 °C 10 km+ 800 ft 210° 210° 12 kt METAR EHLE 261325Z AUTO 21012KT 180V240 9999 -RADZ FEW007 BKN008 OVC010 13/12 Q0996 TEMPO 4000 RADZ
14:55
I
13 °C 10 km+ 700 ft 210° 210° 10 kt METAR EHLE 261255Z AUTO 21010KT 170V240 9999 FEW006 BKN007 BKN008 13/12 Q0996 REDZ TEMPO 4000 RADZ
14:25
I
12 °C 9 km 700 ft 220° 220° 12 kt METAR EHLE 261225Z AUTO 22012KT 190V250 9000 DZ FEW006 BKN007 BKN008 12/12 Q0996 TEMPO 4000
13:55
I
12 °C 4.2 km 700 ft 200° 200° 13 kt METAR EHLE 261155Z AUTO 20013KT 170V240 4200 BR FEW006 BKN007 OVC009 12/11 Q0996 TEMPO 6000
Older data

We and third parties follow your internet behavior on our website with cookies. If you continue, we assume you agree with our cookie policy. Learn more